Preview of NWS' New Version of Forecast
This preview is not operational and should not be used for support decisions.

Regional Weather Roundup (RWR)

Issued by National Weather Service (NWS)

                            
000
ASUS44 KJAN 190210
RWRMS 

MISSISSIPPI HOURLY WEATHER ROUNDUP
NATIONAL WEATHER SERVICE JACKSON MS
900 PM CDT SAT MAY 18 2019

NOTE: "FAIR: INDICATES FEW OR NO CLOUDS BELOW 12,000 FEET WITH NO
SIGNIFICANT WEATHER AND/OR OBSTRUCTIONS TO VISIBILITY.

MSZ001>002-007>008-010>013-018>021-025>028-034>036-190300-
NORTHWEST MISSISSIPPI
  
CITY           SKY/WX    TMP DP  RH WIND       PRES   REMARKS
BATESVILLE     CLOUDY    79  66  65 S6        29.84R                  
CLARKSDALE     CLOUDY    66  66 100 NW20      29.87S                  
CLEVELAND      CLOUDY    71  63  75 N15G28    29.85R                  
GREENWOOD      MOCLDY    73  70  90 S5        29.85S                  
GREENVILLE     FAIR      80  66  62 S13       29.82R                  
OLIVE BRANCH   MOCLDY    70  66  88 W18G28    29.86R                  
OXFORD         FAIR      77  64  65 SE8       29.87R                  
TUNICA         LGT RAIN  63  63 100 NW13      29.86S                  
WINONA         CLOUDY    73  69  88 S6        29.86F                  
$$

MSZ003>006-009-014>017-022>024-029>033-037>039-190300-
NORTHEAST MISSISSIPPI
  
CITY           SKY/WX    TMP DP  RH WIND       PRES   REMARKS
ABERDEEN       CLOUDY    77  75  94 SE8       29.90R                  
COLUMBUS AFB   MOCLDY    76  67  75 S6        29.89R                  
CORINTH        FAIR      77  63  61 S7        29.87R                  
GOLDN TRIANGLE CLOUDY    80  66  62 SE9       29.90R                  
STARKVILLE     MOCLDY    73  68  83 S5        29.91R                  
TUPELO         MOCLDY    80  64  58 SE8       29.86S                  
$$

MSZ040-058-190300-
CENTRAL MISSISSIPPI
  
CITY           SKY/WX    TMP DP  RH WIND       PRES   REMARKS
JACKSON INTL   CLOUDY    76  69  79 SE12      29.86F                  
JACKSON HAWKNS FAIR      75  72  90 SE9       29.87F                  
MADISON        FAIR      73  72  94 S3        29.87S                  
MERIDIAN KEY   FAIR      77  63  61 S6        29.92R                  
MERIDIAN NAS   FAIR      78  63  59 S6        29.92R                  
RAYMOND        FAIR      77  73  88 SE12G21   29.84F                  
VICKSBURG VKS    N/A     77  72  83 S8        29.84R                  
$$

MSZ059>079-190300-
SOUTH MISSISSIPPI
  
CITY           SKY/WX    TMP DP  RH WIND       PRES   REMARKS
BROOKHAVEN     FAIR      77  70  78 SE10G18   29.89F                  
HATTIESBURG    FAIR      76  67  73 S6        29.93R                  
LAUREL         PTCLDY    78  67  69 S7        29.92R                  
MCCOMB         FAIR      77  71  82 SE12      29.88F                  
NATCHEZ        FAIR      76  71  85 SE12      29.84R                  
PINE BELT      FAIR      76  68  76 S8        29.94R                  
$$

MSZ080>082-190300-
COASTAL MISSISSIPPI
  
CITY           SKY/WX    TMP DP  RH WIND       PRES   REMARKS
BAY ST LOUIS   CLOUDY    79  73  83 SE10      29.91R                  
BILOXI         MOCLDY    79  72  78 S13       29.92R                  
PASCAGOULA     FAIR      78  70  76 SE7       29.93S                  
GULFPORT       FAIR      80  71  74 SE15      29.92R                  
$$

LAZ007>009-015>016-023>026-190300-
NORTHEAST LOUISIANA
  
CITY           SKY/WX    TMP DP  RH WIND       PRES   REMARKS
BASTROP        CLOUDY    74  74  98 CALM      29.83R FOG              
TALLULAH/VBURG FAIR      77  70  79 SE10      29.83S                  
VIDALIA        FAIR      78  72  79 SE15      29.82R                  
$$